www.pogodaiklimat.ru
ПОГОДА в Преск-Айле
Время
и дата
03:47 30.01
03:56 30.01
04:09 30.01
04:56 30.01
05:56 30.01
06:56 30.01
07:56 30.01
08:56 30.01
09:20 30.01
09:28 30.01
09:56 30.01
10:56 30.01
11:56 30.01
12:56 30.01
13:56 30.01
14:56 30.01
15:56 30.01
16:03 30.01
16:12 30.01
16:30 30.01
16:48 30.01
16:56 30.01
17:40 30.01
17:56 30.01
18:10 30.01
18:29 30.01
18:56 30.01
19:56 30.01
20:56 30.01
21:32 30.01
21:56 30.01
22:14 30.01
22:56 30.01
23:56 30.01
00:33 31.01
00:45 31.01
00:56 31.01
01:10 31.01
01:19 31.01
01:25 31.01
01:56 31.01
02:56 31.01
03:56 31.01
04:56 31.01
05:56 31.01
06:56 31.01
07:19 31.01
07:27 31.01
Ветер
(напр.,м/с)
Видим. Явления Облачность Т
(С)
Тd
(С)
f
(%)
Тe
(С)
Тes
(С)
Комфортность P
(гПа)
Po
(гПа)
Тmin
(С)
Tmax
(С)
R
(мм)
R24
(мм)
S
(см)
штиль 0 16 км ясно -14.0 -16.0 85 -14 -14 999.6
штиль 0 2 км дымка ясно -14.4 -15.6 91 -14 -14 1023.6 1000.0
З 2 11 км ясно -14.0 -16.0 85 -19 -19 1000.3
штиль 0 16 км ясно -15.0 -16.7 87 -15 -15 1025.2 1001.6
СЗ 2 16 км ясно -15.6 -16.7 91 -21 -21 1025.3 1001.6
З 3 16 км ясно -16.1 -17.8 87 -23 -23 1025.7 1002.0 -16.7 -10.0
штиль 0 16 км ясно -13.9 -16.1 83 -14 -14 1026.4 1002.6
З 4 14 км слабый снег ясно -12.8 -15.6 79 -20 -20 1027.2 1003.6
штиль 0 1 км мгла ясно -11.0 -14.0 78 -11 -9 1003.3
СЗ 3 16 км ясно -11.0 -14.0 78 -17 -15 1003.3
СЗ 4 13 км ясно -9.4 -13.9 70 -16 -15 1026.7 1003.3
С 2 16 км ясно -6.7 -12.8 62 -11 -8 1026.3 1003.0
С 3 16 км ясно -6.1 -13.3 57 -11 -8 1024.7 1001.3
С 2 16 км ясно -7.2 -12.8 64 -11 -7 1024.2 1001.0 -16.1 -5.0
штиль 0 16 км 5/0 2400 m
[Ac]
-6.1 -12.2 62 -7 -4 1023.9 1000.6
ЮВ 2 16 км ясно -7.8 -12.8 67 -12 -10 1024.4 1001.0
В 2 16 км слабый снег 8/8 930 m
[Ns]
-8.9 -12.8 73 -13 -13 1024.2 1000.6
штиль 0 800 м снег 10/10 30 m
[Ns]
-9.0 -13.0 73 -9 -9 1000.6
штиль 0 6 км слабый снег 10/10 840 m
[Ns]
-9.0 -13.0 73 -9 -9 1000.6
штиль 0 2 км слабый снег 10/10 870 m
[Ns]
-9.0 -13.0 73 -9 -9 1000.3
В 2 4 км слабый снег 10/10 810 m
[Ns]
-9.0 -13.0 73 -13 -13 1000.3
штиль 0 5 км слабый снег 10/10 810 m
[Ns]
-9.4 -12.8 76 -10 -10 1023.7 1000.0
штиль 0 3 км слабый снег 10/10 450 m
[Ns]
-9.0 -12.0 79 -9 -9 1000.3
штиль 0 3 км слабый снег, дымка 10/10 450 m
[Ns]
-10.0 -12.2 84 -10 -10 1023.9 1000.3
штиль 0 3 км слабый снег, дымка 10/10 120 m
[Ns]
-10.0 -12.0 85 -10 -10 1000.3
штиль 0 3 км слабый снег, дымка 10/10 120 m
[Ns]
-10.0 -12.0 85 -10 -10 1000.6
штиль 0 3 км слабый снег, дымка 10/10 510 m
[Ns]
-10.0 -11.7 87 -10 -10 1024.2 1000.6 -10.0 -6.1
штиль 0 4 км слабый снег, дымка 10/10 690 m
[Ns]
-10.0 -11.7 87 -10 -10 1024.0 1000.3
штиль 0 3 км слабый снег, дымка 10/10 630 m
[Ns]
-10.0 -11.7 87 -10 -10 1023.7 1000.0
штиль 0 5 км слабый снег, дымка 10/10 750 m
[Ns]
-10.0 -12.0 85 -10 -10 1000.0
штиль 0 6 км слабый снег, дымка 10/10 690 m
[Ns]
-10.0 -12.2 84 -10 -10 1023.3 1000.0
ЮЗ 2 8 км слабый снег, дымка 10/10 720 m
[Ns]
-11.0 -12.0 92 -16 -16 1000.0
штиль 0 11 км слабый снег 10/10 1380 m
[Ns]
-10.6 -11.7 92 -11 -11 1023.2 1000.0
штиль 0 6 км слабый снег, дымка 10/10 1080 m
[Ns]
-10.6 -12.2 88 -11 -11 1022.4 999.0
штиль 0 4 км слабый снег, дымка 10/10 720 m
[Ns]
-11.0 -12.0 92 -11 -11 999.0
штиль 0 6 км слабый снег, дымка 10/10 810 m
[Ns]
-11.0 -12.0 92 -11 -11 999.0
штиль 0 8 км слабый снег, дымка 10/10 810 m
[Ns]
-11.1 -12.2 92 -11 -11 1022.4 999.0 -11.1 -10.0
штиль 0 5 км слабый снег, дымка 10/10 690 m
[Ns]
-11.0 -12.0 92 -11 -11 999.0
штиль 0 4 км слабый снег, дымка 10/10 690 m
[Ns]
-11.0 -12.0 92 -11 -11 999.0
штиль 0 5 км слабый снег, дымка 10/10 690 m
[Ns]
-11.0 -12.0 92 -11 -11 999.0
штиль 0 10 км слабый снег, дымка 8/8 1020 m
[Ns]
-11.7 -13.3 88 -12 -12 1022.1 998.6
штиль 0 16 км 5/0 2700 m
[Ac]
-13.3 -15.0 87 -13 -13 1022.0 998.6
штиль 0 16 км 10/0 2400 m
[Ac]
-13.9 -15.0 91 -14 -14 1021.9 998.3
штиль 0 16 км 10/0 2250 m
[Ac]
-13.3 -15.0 87 -13 -13 1021.5 998.0
штиль 0 16 км 10/10 1950 м -13.3 -15.0 87 -13 -13 1021.1 997.6
ЮЗ 2 14 км слабый снег 10/8 1050 m
[Ac Ns]
-12.8 -13.9 91 -17 -17 1021.3 997.6 -13.9 -11.1
Ю 2 6 км слабый снег, дымка 10/10 660 m
[Ns]
-13.0 -14.0 92 -18 -18 998.0
штиль 0 3 км слабый снег, дымка 10/10 600 m
[Ns]
-12.0 -14.0 85 -12 -12 998.0
Местоположение метеостанции Presque Isle: широта 46.6833 долгота -68.0500 высота над уровнем моря 163 м.
В архиве по умолчанию представлена погода в Преск-Айле за последние 1-2 суток. Обновление информации о фактической погоде в базе происходит ежечасно! Архивные данные за месяц целиком и за предыдущие месяцы Вы можете получить, выбрав интересующий диапазон дат из раскрывающегося списка и нажав кнопку "Ввод!".
Внимание! Архив погоды МЕТАР в базе сайта по станциям, не включенным в климатический монитор, хранится не более 60 дней. Нет смысла пытаться выбрать более раннюю дату.
*Определитесь, кто Вы:
Внимание! Время в таблицах - местное (без учета летнего времени). Для получения всемирного времени необходимо вычесть поправку, которая равна -5 ч.
Смотрите также архив погоды в соседних городах и на ближайших метеорологических станциях:
Партнеры нашего сайта:      
Пояснения к столбцам:
  • Ветер - указаны скорость ветра в м/с - средняя за 10 мин, порывы в срок и между сроками (в фигурных скобках) и направление, откуда дует ветер: С - северный,
  • СВ - северо-восточный, В - восточный, ЮВ - юго-восточный, Ю - южный, ЮЗ - юго-западный, З - западный, СЗ - северо-западный.
  • Видимость - горизонтальная дальность видимости в метрах или километрах. При видимости от 1 до 10 км при отсутствии осадков обычно наблюдается дымка, при ухудшении видимости до 1 км и менее - туман. В сухую погоду видимость может ухудшаться дымом, пылью или мглою.
  • Явления - указаны атмосферные явления, наблюдавшиеся в срок или в последний час перед сроком; фигурными скобками обозначены явления, наблюдавшиеся между сроками (за 1-3 часа до срока); квадратными скобками обозначены град или гололедные отложения с указанием их диаметра в мм.
  • Облачность - указаны через наклонную черту общая и нижняя облачность в баллах и высота нижней границы облаков в метрах; квадратными скобками обозначены формы облаков: Ci - перистые, Cs - перисто-слоистые, Cc - перисто-кучевые, Ac - высококучевые, As - высокослоистые, Sc - слоисто-кучевые, Ns - слоисто-дождевые, Cu - кучевые, Cb - кучево-дождевые. Подробнее классификацию облаков см. в Атласе облаков (PDF).
  • T - Температура воздуха - температура, измеренная на высоте 2 м над землей.
  • Td - Температура точки росы - температура, при понижении до которой содержащийся в воздухе водяной пар достигнет насыщения.
  • f - Относительная влажность воздуха - влажноcть воздуха, измеренная на высоте 2 м над землей.
  • Te - Эффективная температура - температура, которую ощущает одетый по сезону человек в тени. Характеристика душности погоды. При расчете учитывается влияние влажности воздуха и скорости ветра на теплоощущения человека.
  • Tes - Эффективная температура на солнце - температура, которую ощущает человек, с поправкой на солнечный нагрев. Характеристика знойности погоды. Зависит от высоты солнца над горизонтом, облачности и скорости ветра. Ночью, в пасмурную погоду, а также при ветре 12 м/с и более поправка равна нулю.
  • P - Атмосферное давление - приведенное к уровню моря атмосферное давление.
  • Po - Атмосферное давление - измеренное на уровне метеостанции атмосферное давление.
  • Tmin - Минимальная температура - минимум температуры воздуха на высоте 2 м над землей.
  • Tmax - Максимальная температура - максимум температуры воздуха на высоте 2 м над землей.
  • R - Количество осадков - Количество выпавших осадков за период времени, мм. При наведении курсора мыши на число - период времени, за который выпало указанное количество осадков.
  • R24 - Количество осадков - Количество выпавших осадков за 24 часа, мм.
  • S - Снежный покров - Высота снежного покрова, см. При наведении курсора мыши на число - состояние снежного покрова и степень покрытия местности в баллах.